Simultaneous Nadir Overpasses (SNOs) Predictions

Prediction of SNOs between METOP-A and TERRA Satellite Orbit:

Table of predicted SNOs for the next 14.0 days since TLE Epoch: 9/5/2020
Index Date (METOP-A) Time (METOP-A) Lat,Lon (METOP-A) SZA (METOP-A ) Date (TERRA) Time (TERRA) Lat,Lon (TERRA) SZA (TERRA ) Distance(km) Time Diff (sec)
1 09/07/2020 19:56:41 -81.40, 109.34 101.28 09/07/2020 19:57:54 -81.39, 109.45 101.24 2.18 73
2 09/07/2020 20:47:21 81.39, -83.05 78.77 09/07/2020 20:47:21 81.38, -83.14 78.75 2.14 0
3 09/07/2020 21:38:01 -81.38, 84.63 101.19 09/07/2020 21:36:47 -81.39, 84.76 101.20 2.42 74
4 09/10/2020 15:31:04 -81.39, 175.97 100.17 09/10/2020 15:32:09 -81.39, 175.85 100.16 2.03 65
5 09/10/2020 16:21:44 81.38, -16.45 79.87 09/10/2020 16:21:35 81.39, -16.39 79.88 1.46 9
6 09/13/2020 11:05:28 -81.39,-117.80 99.09 09/13/2020 11:06:24 -81.38,-117.78 99.07 1.17 56
7 09/13/2020 11:56:08 81.39, 49.75 80.95 09/13/2020 11:55:50 81.39, 49.95 80.96 3.26 18
8 09/16/2020 06:39:50 -81.39, -51.19 97.97 09/16/2020 06:40:37 -81.40, -51.07 97.93 2.25 47
9 09/16/2020 07:30:30 81.38, 116.33 82.07 09/16/2020 07:30:04 81.38, 116.24 82.05 1.46 26
